{"data":{"norad_id":62472,"intl_designator":"2024-254L","name":"STARLINK-11500 [DTC]","alt_names":[],"object_type":"PAYLOAD","status":"ACTIVE","operator":null,"country":"US","launch_date":"2024-12-31","launch_site_code":"AFETR","launch_vehicle":null,"mission":null,"orbit_class":"UNKNOWN","rcs_meters":null,"size_class":null,"mass_kg":null,"dimensions":null,"purposes":["comms"],"wikipedia_slug":null,"has_3d_model":false,"image_url":null,"decayed_at":null,"tle_current":{"epoch":"2026-09-21T00:17:57.833088Z","epoch_age_seconds":130292,"freshness":"FRESH","line1":"1 62472U 24254L   26264.01247492  .00114467  00000+0  88166-3 0  9991","line2":"2 62472  43.0043 125.3482 0003599 255.2223 104.8247 15.70879851 99598","mean_motion":15.70879851,"eccentricity":0.0003599,"inclination_deg":43.0043,"raan_deg":125.3482,"arg_perigee_deg":255.2223,"mean_anomaly_deg":104.8247,"bstar":0.00088166,"rev_number":9959,"period_min":91.668372923831,"perigee_km":353.95740927363,"apogee_km":358.8049154469,"semimajor_km":6734.5181623603,"source":"CELESTRAK","updated_at":"2026-09-22T09:00:49.613077Z"}}}